| time (UTC) | temp C | wind direction | speed KPH | gust KPH | rain 1hr cm | rain 24hr cm | rain mn cm | humidity % | barometer mb |
| 20260906225032 | 23 | 45 | 0.0 | 1.6 | 0.00 | 0.08 | 0.08 | 87 | 1005.4 |
| 20260906224528 | 23 | 43 | 0.0 | 0.0 | 0.00 | 0.08 | 0.08 | 87 | 1005.3 |
| 20260906224025 | 23 | 61 | 3.2 | 3.2 | 0.00 | 0.08 | 0.08 | 86 | 1005.9 |
| 20260906223520 | 23 | 41 | 0.0 | 0.0 | 0.00 | 0.08 | 0.08 | 86 | 1006.2 |
| 20260906223019 | 23 | 45 | 0.0 | 1.6 | 0.00 | 0.08 | 0.08 | 86 | 1006.1 |
| 20260906222508 | 23 | 42 | 0.0 | 0.0 | 0.00 | 0.08 | 0.08 | 86 | 1006.2 |
| 20260906222005 | 24 | 56 | 3.2 | 3.2 | 0.00 | 0.08 | 0.08 | 85 | 1005.7 |
| 20260906221505 | 24 | 44 | 0.0 | 1.6 | 0.00 | 0.08 | 0.08 | 85 | 1005.6 |
| 20260906221000 | 25 | 45 | 0.0 | 1.6 | 0.00 | 0.08 | 0.08 | 84 | 1005.7 |
| 20260906220455 | 25 | 44 | 0.0 | 0.0 | 0.00 | 0.08 | 0.08 | 82 | 1006.2 |
| 20260906215954 | 25 | 34 | 0.0 | 1.6 | 0.18 | 0.08 | 0.08 | 81 | 1006.0 |
| 20260906215454 | 25 | 42 | 0.0 | 1.6 | 0.18 | 0.08 | 0.08 | 80 | 1005.9 |
| 20260906214952 | 26 | 304 | 9.7 | 11.3 | 0.00 | 0.05 | 0.05 | 79 | 1005.7 |
| 20260906214451 | 26 | 285 | 8.0 | 11.3 | 0.13 | 0.05 | 0.05 | 78 | 1005.7 |
| 20260906213951 | 27 | 332 | 9.7 | 14.5 | 0.13 | 0.05 | 0.05 | 72 | 1006.1 |
| 20260906213445 | 27 | 11 | 3.2 | 3.2 | 0.00 | 0.03 | 0.03 | 74 | 1005.5 |
| 20260906212943 | 28 | 34 | 1.6 | 3.2 | 0.00 | 0.03 | 0.03 | 73 | 1004.8 |
| 20260906212438 | 29 | 41 | 1.6 | 3.2 | 0.00 | 0.03 | 0.03 | 72 | 1004.2 |
| 20260906211934 | 30 | 42 | 0.0 | 3.2 | 0.18 | 0.03 | 0.03 | 73 | 1003.9 |
| 20260906211428 | 31 | 36 | 0.0 | 0.0 | 0.18 | 0.03 | 0.03 | 67 | 1003.7 |
| 20260906210923 | 32 | 41 | 0.0 | 0.0 | 0.00 | 0.00 | 0.00 | 64 | 1003.3 |
| 20260906210419 | 32 | 34 | 0.0 | 0.0 | 0.00 | 0.00 | 0.00 | 60 | 1003.2 |
| 20260906205913 | 33 | 45 | 0.0 | 0.0 | 0.00 | 0.00 | 0.00 | 56 | 1003.1 |
| 20260906205409 | 33 | 51 | 1.6 | 3.2 | 0.00 | 0.00 | 0.00 | 53 | 1002.9 |
| 20260906204905 | 33 | 43 | 0.0 | 1.6 | 0.00 | 0.00 | 0.00 | 52 | 1002.9 |
| 20260906204404 | 33 | 43 | 0.0 | 3.2 | 0.00 | 0.00 | 0.00 | 53 | 1003.0 |
| 20260906203903 | 34 | 45 | 0.0 | 3.2 | 0.00 | 0.00 | 0.00 | 51 | 1003.1 |
| 20260906203358 | 33 | 47 | 1.6 | 8.0 | 0.00 | 0.00 | 0.00 | 52 | 1003.2 |
| 20260906202856 | 33 | 39 | 0.0 | 1.6 | 0.00 | 0.00 | 0.00 | 53 | 1003.3 |
| 20260906202349 | 34 | 34 | 3.2 | 3.2 | 0.00 | 0.00 | 0.00 | 53 | 1003.5 |
| 20260906201849 | 33 | 44 | 1.6 | 1.6 | 0.00 | 0.00 | 0.00 | 52 | 1003.2 |
| 20260906201344 | 33 | 24 | 1.6 | 3.2 | 0.00 | 0.00 | 0.00 | 52 | 1003.3 |
| 20260906200839 | 33 | 24 | 0.0 | 1.6 | 0.00 | 0.00 | 0.00 | 53 | 1003.5 |
| 20260906200335 | 34 | 5 | 3.2 | 3.2 | 0.00 | 0.00 | 0.00 | 53 | 1003.8 |
| 20260906195830 | 35 | 39 | 0.0 | 1.6 | 0.00 | 0.00 | 0.00 | 52 | 1003.9 |
| 20260906195327 | 35 | 38 | 0.0 | 1.6 | 0.00 | 0.00 | 0.00 | 51 | 1003.8 |
| 20260906194822 | 35 | 38 | 1.6 | 1.6 | 0.00 | 0.00 | 0.00 | 50 | 1004.0 |
| 20260906194318 | 35 | 37 | 1.6 | 1.6 | 0.00 | 0.00 | 0.00 | 51 | 1004.1 |
| 20260906193813 | 35 | 38 | 0.0 | 1.6 | 0.00 | 0.00 | 0.00 | 50 | 1004.0 |
| 20260906193308 | 34 | 41 | 0.0 | 1.6 | 0.00 | 0.00 | 0.00 | 51 | 1004.2 |
| 20260906192803 | 35 | 37 | 1.6 | 3.2 | 0.00 | 0.00 | 0.00 | 51 | 1004.2 |
| 20260906192258 | 35 | 25 | 0.0 | 1.6 | 0.00 | 0.00 | 0.00 | 50 | 1004.0 |
| 20260906191756 | 34 | 41 | 0.0 | 1.6 | 0.00 | 0.00 | 0.00 | 52 | 1004.3 |
| 20260906191251 | 34 | 54 | 1.6 | 3.2 | 0.00 | 0.00 | 0.00 | 54 | 1004.2 |
| 20260906190746 | 35 | 55 | 4.8 | 4.8 | 0.00 | 0.00 | 0.00 | 51 | 1004.4 |
| 20260906190240 | 35 | 26 | 0.0 | 0.0 | 0.00 | 0.00 | 0.00 | 50 | 1004.6 |
| 20260906185739 | 34 | 34 | 0.0 | 4.8 | 0.00 | 0.00 | 0.00 | 52 | 1004.3 |
| 20260906185238 | 33 | 43 | 1.6 | 1.6 | 0.00 | 0.00 | 0.00 | 53 | 1004.6 |
| 20260906184733 | 33 | 24 | 1.6 | 1.6 | 0.00 | 0.00 | 0.00 | 56 | 1004.5 |
| 20260906184228 | 33 | 17 | 1.6 | 3.2 | 0.00 | 0.00 | 0.00 | 57 | 1004.8 |
| 20260906183724 | 32 | 27 | 0.0 | 1.6 | 0.00 | 0.00 | 0.00 | 56 | 1005.0 |
| 20260906183221 | 32 | 20 | 1.6 | 3.2 | 0.00 | 0.00 | 0.00 | 56 | 1004.9 |
| 20260906182720 | 32 | 30 | 1.6 | 1.6 | 0.00 | 0.00 | 0.00 | 58 | 1005.1 |
| 20260906182216 | 32 | 14 | 1.6 | 3.2 | 0.00 | 0.00 | 0.00 | 59 | 1005.0 |
| 20260906181711 | 32 | 26 | 0.0 | 1.6 | 0.00 | 0.00 | 0.00 | 58 | 1005.1 |
| 20260906181208 | 32 | 19 | 1.6 | 4.8 | 0.00 | 0.00 | 0.00 | 57 | 1005.5 |
| 20260906180702 | 32 | 342 | 4.8 | 4.8 | 0.00 | 0.00 | 0.00 | 58 | 1005.4 |
| 20260906180157 | 32 | 338 | 4.8 | 4.8 | 0.00 | 0.00 | 0.00 | 58 | 1005.3 |
| 20260906175655 | 32 | 33 | 1.6 | 3.2 | 0.00 | 0.00 | 0.00 | 59 | 1005.7 |
| 20260906175150 | 32 | 24 | 1.6 | 1.6 | 0.00 | 0.00 | 0.00 | 60 | 1005.6 |
| 20260906174648 | 32 | 32 | 1.6 | 1.6 | 0.00 | 0.00 | 0.00 | 60 | 1005.4 |
| 20260906174143 | 32 | 32 | 0.0 | 1.6 | 0.00 | 0.00 | 0.00 | 61 | 1005.4 |
| 20260906173639 | 32 | 25 | 1.6 | 1.6 | 0.00 | 0.00 | 0.00 | 60 | 1005.7 |
| 20260906173134 | 32 | 26 | 1.6 | 1.6 | 0.00 | 0.00 | 0.00 | 59 | 1005.8 |
| 20260906172633 | 32 | 24 | 0.0 | 1.6 | 0.00 | 0.00 | 0.00 | 60 | 1005.7 |
| 20260906172129 | 31 | 12 | 1.6 | 3.2 | 0.00 | 0.00 | 0.00 | 61 | 1005.7 |
| 20260906171628 | 32 | 9 | 1.6 | 3.2 | 0.00 | 0.00 | 0.00 | 59 | 1005.6 |
| 20260906171124 | 31 | 28 | 0.0 | 1.6 | 0.00 | 0.00 | 0.00 | 60 | 1005.8 |
| 20260906170621 | 31 | 28 | 0.0 | 3.2 | 0.00 | 0.00 | 0.00 | 61 | 1005.9 |
| 20260906170119 | 31 | 31 | 0.0 | 1.6 | 0.00 | 0.00 | 0.00 | 61 | 1005.8 |
| 20260906165616 | 31 | 31 | 0.0 | 0.0 | 0.00 | 0.00 | 0.00 | 63 | 1006.2 |
| 20260906165111 | 31 | 33 | 0.0 | 1.6 | 0.00 | 0.00 | 0.00 | 62 | 1005.9 |
| 20260906164610 | 31 | 33 | 0.0 | 0.0 | 0.00 | 0.00 | 0.00 | 62 | 1006.0 |
| 20260906164106 | 31 | 33 | 0.0 | 1.6 | 0.00 | 0.00 | 0.00 | 61 | 1006.1 |
| 20260906163601 | 31 | 33 | 3.2 | 3.2 | 0.00 | 0.00 | 0.00 | 63 | 1006.2 |
| 20260906163057 | 31 | 33 | 1.6 | 1.6 | 0.00 | 0.00 | 0.00 | 64 | 1006.1 |
| 20260906162554 | 31 | 33 | 1.6 | 1.6 | 0.00 | 0.00 | 0.00 | 64 | 1006.3 |
| 20260906162049 | 31 | 32 | 0.0 | 0.0 | 0.00 | 0.00 | 0.00 | 64 | 1006.3 |
| 20260906161544 | 31 | 33 | 1.6 | 3.2 | 0.00 | 0.00 | 0.00 | 65 | 1006.3 |
| 20260906161043 | 30 | 33 | 1.6 | 1.6 | 0.00 | 0.00 | 0.00 | 65 | 1006.4 |
| 20260906160542 | 30 | 31 | 0.0 | 1.6 | 0.00 | 0.00 | 0.00 | 68 | 1006.6 |
| 20260906160040 | 30 | 28 | 0.0 | 0.0 | 0.00 | 0.00 | 0.00 | 70 | 1006.6 |
| 20260906155538 | 30 | 32 | 0.0 | 0.0 | 0.00 | 0.00 | 0.00 | 70 | 1006.6 |
| 20260906155035 | 30 | 32 | 0.0 | 1.6 | 0.00 | 0.00 | 0.00 | 70 | 1006.6 |
| 20260906154530 | 30 | 33 | 0.0 | 1.6 | 0.00 | 0.00 | 0.00 | 71 | 1006.5 |
| 20260906154028 | 30 | 33 | 0.0 | 1.6 | 0.00 | 0.00 | 0.00 | 71 | 1006.8 |
| 20260906153527 | 29 | 32 | 0.0 | 1.6 | 0.00 | 0.00 | 0.00 | 72 | 1006.6 |
| 20260906153023 | 29 | 31 | 0.0 | 1.6 | 0.00 | 0.00 | 0.00 | 73 | 1006.9 |
| 20260906152517 | 28 | 31 | 0.0 | 0.0 | 0.00 | 0.00 | 0.00 | 75 | 1006.9 |
| 20260906152016 | 28 | 30 | 0.0 | 1.6 | 0.00 | 0.00 | 0.00 | 77 | 1006.8 |
| 20260906151512 | 28 | 27 | 0.0 | 3.2 | 0.00 | 0.00 | 0.00 | 77 | 1006.7 |
| 20260906151008 | 28 | 31 | 0.0 | 0.0 | 0.00 | 0.00 | 0.00 | 77 | 1006.8 |
| 20260906150503 | 28 | 31 | 0.0 | 0.0 | 0.00 | 0.00 | 0.00 | 77 | 1007.0 |
| 20260906150002 | 28 | 31 | 0.0 | 0.0 | 0.00 | 0.00 | 0.00 | 79 | 1006.9 |
| 20260906145456 | 28 | 31 | 0.0 | 1.6 | 0.00 | 0.00 | 0.00 | 79 | 1006.9 |
| 20260906144955 | 28 | 31 | 0.0 | 0.0 | 0.00 | 0.00 | 0.00 | 81 | 1006.7 |
| 20260906144451 | 27 | 31 | 0.0 | 0.0 | 0.00 | 0.00 | 0.00 | 81 | 1006.8 |
| 20260906143946 | 27 | 31 | 0.0 | 1.6 | 0.00 | 0.00 | 0.00 | 82 | 1006.9 |
| 20260906143441 | 27 | 31 | 0.0 | 0.0 | 0.00 | 0.00 | 0.00 | 83 | 1006.9 |
| 20260906142937 | 27 | 31 | 0.0 | 0.0 | 0.00 | 0.00 | 0.00 | 86 | 1006.8 |
| 20260906142431 | 26 | 31 | 0.0 | 0.0 | 0.00 | 0.00 | 0.00 | 87 | 1006.8 |
| 20260906141926 | 26 | 31 | 0.0 | 0.0 | 0.00 | 0.00 | 0.00 | 89 | 1007.0 |
| 20260906141425 | 26 | 31 | 0.0 | 0.0 | 0.00 | 0.00 | 0.00 | 90 | 1006.7 |
| 20260906140920 | 26 | 31 | 0.0 | 0.0 | 0.00 | 0.00 | 0.00 | 91 | 1006.9 |
| 20260906140414 | 25 | 31 | 0.0 | 0.0 | 0.00 | 0.00 | 0.00 | 92 | 1006.7 |
| 20260906135912 | 25 | 31 | 0.0 | 0.0 | 0.00 | 0.00 | 0.00 | 93 | 1006.6 |
| 20260906135406 | 25 | 31 | 0.0 | 0.0 | 0.00 | 0.00 | 0.00 | 93 | 1006.7 |
| 20260906134902 | 25 | 31 | 0.0 | 0.0 | 0.00 | 0.00 | 0.00 | 94 | 1006.8 |
| 20260906134357 | 25 | 31 | 0.0 | 1.6 | 0.00 | 0.00 | 0.00 | 95 | 1006.6 |
| 20260906133852 | 25 | 26 | 0.0 | 0.0 | 0.00 | 0.00 | 0.00 | 96 | 1006.8 |
| 20260906133348 | 24 | 26 | 0.0 | 0.0 | 0.00 | 0.00 | 0.00 | 96 | 1006.7 |
| 20260906132843 | 24 | 29 | 0.0 | 0.0 | 0.00 | 0.00 | 0.00 | 96 | 1006.6 |
| 20260906132338 | 24 | 29 | 0.0 | 0.0 | 0.00 | 0.00 | 0.00 | 97 | 1006.7 |
| 20260906131834 | 23 | 29 | 0.0 | 0.0 | 0.00 | 0.00 | 0.00 | 97 | 1006.5 |
| 20260906131329 | 23 | 29 | 0.0 | 0.0 | 0.00 | 0.00 | 0.00 | 97 | 1006.8 |
| 20260906130825 | 23 | 29 | 0.0 | 0.0 | 0.00 | 0.00 | 0.00 | 97 | 1006.5 |
| 20260906130324 | 23 | 29 | 0.0 | 0.0 | 0.00 | 0.00 | 0.00 | 97 | 1006.6 |
| 20260906125823 | 23 | 29 | 0.0 | 0.0 | 0.00 | 0.00 | 0.00 | 97 | 1006.6 |
| 20260906125321 | 23 | 28 | 0.0 | 0.0 | 0.00 | 0.00 | 0.00 | 97 | 1006.7 |
| 20260906124816 | 23 | 27 | 0.0 | 0.0 | 0.00 | 0.00 | 0.00 | 97 | 1006.6 |
| 20260906124312 | 23 | 30 | 0.0 | 0.0 | 0.00 | 0.00 | 0.00 | 97 | 1006.6 |
| 20260906123811 | 23 | 30 | 1.6 | 1.6 | 0.00 | 0.00 | 0.00 | 97 | 1006.7 |
| 20260906123306 | 23 | 28 | 0.0 | 0.0 | 0.00 | 0.00 | 0.00 | 97 | 1006.6 |
| 20260906122806 | 23 | 28 | 0.0 | 0.0 | 0.00 | 0.00 | 0.00 | 97 | 1006.5 |
| 20260906122301 | 22 | 40 | 0.0 | 0.0 | 0.00 | 0.00 | 0.00 | 97 | 1006.6 |
| 20260906121757 | 22 | 40 | 0.0 | 0.0 | 0.00 | 0.00 | 0.00 | 97 | 1006.5 |
| 20260906121253 | 22 | 40 | 0.0 | 0.0 | 0.00 | 0.00 | 0.00 | 97 | 1006.6 |
| 20260906120749 | 22 | 40 | 0.0 | 0.0 | 0.00 | 0.00 | 0.00 | 97 | 1006.3 |
| 20260906120245 | 22 | 41 | 0.0 | 0.0 | 0.00 | 0.00 | 0.00 | 97 | 1006.1 |
| 20260906115741 | 22 | 40 | 0.0 | 0.0 | 0.00 | 0.00 | 0.00 | 97 | 1005.9 |
| 20260906115236 | 22 | 41 | 0.0 | 0.0 | 0.00 | 0.00 | 0.00 | 97 | 1006.2 |
| 20260906114735 | 22 | 41 | 0.0 | 0.0 | 0.00 | 0.00 | 0.00 | 97 | 1006.2 |
| 20260906114231 | 22 | 41 | 0.0 | 0.0 | 0.00 | 0.00 | 0.00 | 97 | 1006.2 |
| 20260906113726 | 22 | 40 | 0.0 | 0.0 | 0.00 | 0.00 | 0.00 | 97 | 1006.1 |
| 20260906113225 | 22 | 40 | 0.0 | 0.0 | 0.00 | 0.00 | 0.00 | 97 | 1006.1 |
| 20260906112725 | 22 | 40 | 0.0 | 0.0 | 0.00 | 0.00 | 0.00 | 97 | 1006.1 |
| 20260906112222 | 22 | 38 | 0.0 | 0.0 | 0.00 | 0.00 | 0.00 | 97 | 1006.0 |
| 20260906111721 | 22 | 38 | 0.0 | 0.0 | 0.00 | 0.00 | 0.00 | 97 | 1005.9 |
| 20260906111215 | 22 | 38 | 0.0 | 0.0 | 0.00 | 0.00 | 0.00 | 97 | 1005.9 |
| 20260906110711 | 22 | 38 | 0.0 | 0.0 | 0.00 | 0.00 | 0.00 | 97 | 1005.5 |
| 20260906110207 | 22 | 38 | 0.0 | 0.0 | 0.00 | 0.00 | 0.00 | 97 | 1005.5 |
| 20260906105706 | 22 | 38 | 0.0 | 0.0 | 0.00 | 0.00 | 0.00 | 97 | 1005.8 |
| 20260906105202 | 21 | 38 | 0.0 | 0.0 | 0.00 | 0.00 | 0.00 | 97 | 1005.8 |
| 20260906104701 | 21 | 38 | 0.0 | 0.0 | 0.00 | 0.00 | 0.00 | 97 | 1005.6 |
| 20260906104201 | 21 | 38 | 0.0 | 0.0 | 0.00 | 0.00 | 0.00 | 97 | 1005.5 |
| 20260906103658 | 21 | 38 | 0.0 | 0.0 | 0.00 | 0.00 | 0.00 | 97 | 1005.5 |
| 20260906103154 | 21 | 38 | 0.0 | 0.0 | 0.00 | 0.00 | 0.00 | 97 | 1005.7 |
| 20260906102649 | 21 | 38 | 0.0 | 0.0 | 0.00 | 0.00 | 0.00 | 97 | 1005.5 |
| 20260906102143 | 22 | 38 | 0.0 | 0.0 | 0.00 | 0.00 | 0.00 | 97 | 1005.5 |
| 20260906101643 | 21 | 38 | 0.0 | 0.0 | 0.00 | 0.00 | 0.00 | 97 | 1005.5 |
| 20260906101143 | 22 | 38 | 0.0 | 0.0 | 0.00 | 0.00 | 0.00 | 97 | 1005.5 |
| 20260906100639 | 22 | 38 | 0.0 | 0.0 | 0.00 | 0.00 | 0.00 | 97 | 1005.5 |
| 20260906100133 | 22 | 38 | 0.0 | 0.0 | 0.00 | 0.00 | 0.00 | 97 | 1005.7 |
| 20260906095628 | 22 | 36 | 0.0 | 0.0 | 0.00 | 0.00 | 0.00 | 97 | 1005.6 |
| 20260906095123 | 22 | 29 | 0.0 | 1.6 | 0.00 | 0.00 | 0.00 | 97 | 1005.4 |
| 20260906094622 | 22 | 7 | 3.2 | 3.2 | 0.00 | 0.00 | 0.00 | 97 | 1005.6 |
| 20260906094118 | 22 | 346 | 3.2 | 3.2 | 0.00 | 0.00 | 0.00 | 97 | 1005.7 |
| 20260906093614 | 22 | 24 | 1.6 | 1.6 | 0.00 | 0.00 | 0.00 | 97 | 1005.3 |
| 20260906093108 | 22 | 37 | 0.0 | 0.0 | 0.00 | 0.00 | 0.00 | 97 | 1005.6 |
| 20260906092603 | 22 | 37 | 0.0 | 0.0 | 0.00 | 0.00 | 0.00 | 97 | 1005.6 |
| 20260906092059 | 22 | 20 | 1.6 | 3.2 | 0.00 | 0.00 | 0.00 | 97 | 1005.6 |
| 20260906091554 | 22 | 335 | 4.8 | 4.8 | 0.00 | 0.00 | 0.00 | 97 | 1005.6 |
| 20260906091051 | 22 | 20 | 0.0 | 1.6 | 0.00 | 0.00 | 0.00 | 97 | 1005.5 |
| 20260906090551 | 22 | 41 | 0.0 | 0.0 | 0.00 | 0.00 | 0.00 | 97 | 1005.3 |
| 20260906090046 | 22 | 41 | 0.0 | 0.0 | 0.00 | 0.00 | 0.00 | 97 | 1005.5 |
| 20260906085544 | 22 | 41 | 0.0 | 0.0 | 0.00 | 0.00 | 0.00 | 97 | 1005.5 |
| 20260906085044 | 22 | 41 | 0.0 | 0.0 | 0.00 | 0.00 | 0.00 | 97 | 1005.5 |
| 20260906084539 | 22 | 41 | 0.0 | 0.0 | 0.00 | 0.00 | 0.00 | 97 | 1005.3 |
| 20260906084037 | 22 | 41 | 0.0 | 0.0 | 0.00 | 0.00 | 0.00 | 97 | 1005.5 |
| 20260906083534 | 22 | 41 | 0.0 | 0.0 | 0.00 | 0.00 | 0.00 | 97 | 1005.3 |
| 20260906083033 | 22 | 41 | 0.0 | 0.0 | 0.00 | 0.00 | 0.00 | 97 | 1005.2 |
| 20260906082528 | 22 | 41 | 0.0 | 0.0 | 0.00 | 0.00 | 0.00 | 97 | 1005.1 |
| 20260906082024 | 22 | 41 | 0.0 | 0.0 | 0.00 | 0.00 | 0.00 | 97 | 1005.4 |
| 20260906081520 | 22 | 41 | 0.0 | 0.0 | 0.00 | 0.00 | 0.00 | 97 | 1005.3 |
| 20260906081015 | 22 | 41 | 0.0 | 0.0 | 0.00 | 0.00 | 0.00 | 97 | 1005.4 |
| 20260906080512 | 22 | 41 | 0.0 | 0.0 | 0.00 | 0.00 | 0.00 | 97 | 1005.2 |
| 20260906080008 | 22 | 41 | 0.0 | 0.0 | 0.00 | 0.00 | 0.00 | 97 | 1005.4 |
| 20260906075502 | 22 | 41 | 0.0 | 0.0 | 0.00 | 0.00 | 0.00 | 97 | 1005.4 |
| 20260906074956 | 22 | 41 | 0.0 | 0.0 | 0.00 | 0.00 | 0.00 | 97 | 1005.2 |
| 20260906074451 | 22 | 41 | 0.0 | 0.0 | 0.00 | 0.00 | 0.00 | 97 | 1005.1 |
| 20260906073949 | 22 | 41 | 0.0 | 0.0 | 0.00 | 0.00 | 0.00 | 97 | 1005.1 |
| 20260906073444 | 22 | 41 | 0.0 | 0.0 | 0.00 | 0.00 | 0.00 | 97 | 1005.2 |
| 20260906072941 | 22 | 42 | 0.0 | 0.0 | 0.00 | 0.00 | 0.00 | 97 | 1004.9 |
| 20260906072436 | 22 | 37 | 0.0 | 0.0 | 0.00 | 0.00 | 0.00 | 97 | 1004.8 |
| 20260906071932 | 22 | 37 | 0.0 | 0.0 | 0.00 | 0.00 | 0.00 | 97 | 1004.8 |
| 20260906071427 | 22 | 37 | 0.0 | 0.0 | 0.00 | 0.00 | 0.00 | 97 | 1005.0 |
| 20260906070923 | 22 | 37 | 0.0 | 0.0 | 0.00 | 0.00 | 0.00 | 97 | 1005.1 |
| 20260906070419 | 22 | 37 | 0.0 | 0.0 | 0.00 | 0.00 | 0.00 | 97 | 1005.0 |
| 20260906065915 | 22 | 37 | 0.0 | 0.0 | 0.00 | 0.00 | 0.00 | 97 | 1005.2 |
| 20260906065409 | 22 | 37 | 0.0 | 0.0 | 0.00 | 0.00 | 0.00 | 97 | 1005.2 |
| 20260906064905 | 22 | 37 | 0.0 | 0.0 | 0.00 | 0.00 | 0.00 | 97 | 1005.2 |
| 20260906064401 | 22 | 30 | 0.0 | 1.6 | 0.00 | 0.00 | 0.00 | 97 | 1005.1 |
| 20260906063901 | 22 | 41 | 0.0 | 0.0 | 0.00 | 0.00 | 0.00 | 97 | 1005.4 |
| 20260906063356 | 22 | 37 | 0.0 | 0.0 | 0.00 | 0.00 | 0.00 | 97 | 1005.4 |
| 20260906062851 | 23 | 12 | 1.6 | 3.2 | 0.00 | 0.00 | 0.00 | 97 | 1005.5 |
| 20260906062350 | 22 | 29 | 0.0 | 0.0 | 0.00 | 0.00 | 0.00 | 97 | 1005.3 |
| 20260906061846 | 22 | 26 | 1.6 | 3.2 | 0.00 | 0.00 | 0.00 | 97 | 1005.4 |
| 20260906061342 | 22 | 329 | 3.2 | 4.8 | 0.00 | 0.00 | 0.00 | 97 | 1005.5 |
| 20260906060836 | 22 | 23 | 0.0 | 0.0 | 0.00 | 0.00 | 0.00 | 97 | 1005.6 |
| 20260906060334 | 22 | 23 | 0.0 | 0.0 | 0.00 | 0.00 | 0.00 | 97 | 1005.7 |
| 20260906055830 | 22 | 23 | 0.0 | 0.0 | 0.00 | 0.00 | 0.00 | 97 | 1005.9 |
| 20260906055325 | 22 | 22 | 0.0 | 0.0 | 0.00 | 0.00 | 0.00 | 97 | 1005.9 |
| 20260906054821 | 22 | 22 | 0.0 | 0.0 | 0.00 | 0.00 | 0.00 | 97 | 1006.1 |
| 20260906054315 | 22 | 22 | 0.0 | 0.0 | 0.00 | 0.00 | 0.00 | 97 | 1006.2 |
| 20260906053812 | 22 | 22 | 0.0 | 0.0 | 0.00 | 0.00 | 0.00 | 97 | 1006.0 |
| 20260906053307 | 22 | 22 | 0.0 | 1.6 | 0.00 | 0.00 | 0.00 | 97 | 1006.1 |
| 20260906052802 | 23 | 29 | 0.0 | 0.0 | 0.00 | 0.00 | 0.00 | 97 | 1006.2 |
| 20260906052259 | 22 | 28 | 0.0 | 0.0 | 0.00 | 0.00 | 0.00 | 97 | 1006.2 |
| 20260906051755 | 23 | 30 | 0.0 | 1.6 | 0.00 | 0.00 | 0.00 | 97 | 1006.2 |
| 20260906051255 | 23 | 28 | 1.6 | 1.6 | 0.00 | 0.00 | 0.00 | 97 | 1006.1 |
| 20260906050750 | 23 | 29 | 0.0 | 0.0 | 0.00 | 0.00 | 0.00 | 97 | 1006.2 |
| 20260906050245 | 23 | 26 | 1.6 | 1.6 | 0.00 | 0.00 | 0.00 | 97 | 1006.1 |
| 20260906045744 | 23 | 18 | 3.2 | 3.2 | 0.00 | 0.00 | 0.00 | 97 | 1006.1 |
| 20260906045239 | 22 | 25 | 0.0 | 1.6 | 0.00 | 0.00 | 0.00 | 97 | 1006.1 |
| 20260906044735 | 22 | 41 | 0.0 | 0.0 | 0.00 | 0.00 | 0.00 | 97 | 1006.1 |
| 20260906044230 | 22 | 41 | 0.0 | 0.0 | 0.00 | 0.00 | 0.00 | 97 | 1006.2 |
| 20260906043726 | 22 | 41 | 0.0 | 0.0 | 0.00 | 0.00 | 0.00 | 97 | 1006.4 |
| 20260906043222 | 22 | 41 | 0.0 | 0.0 | 0.00 | 0.00 | 0.00 | 97 | 1006.5 |
| 20260906042721 | 22 | 41 | 0.0 | 0.0 | 0.00 | 0.00 | 0.00 | 97 | 1006.5 |
| 20260906042220 | 22 | 41 | 0.0 | 0.0 | 0.00 | 0.00 | 0.00 | 97 | 1006.6 |
| 20260906041716 | 22 | 41 | 0.0 | 0.0 | 0.00 | 0.00 | 0.00 | 97 | 1006.5 |
| 20260906041211 | 22 | 41 | 0.0 | 0.0 | 0.00 | 0.00 | 0.00 | 97 | 1006.6 |
| 20260906040707 | 22 | 42 | 0.0 | 0.0 | 0.00 | 0.00 | 0.00 | 97 | 1006.5 |
| 20260906040201 | 22 | 41 | 0.0 | 0.0 | 0.00 | 0.00 | 0.00 | 97 | 1006.6 |
| 20260906035657 | 22 | 41 | 0.0 | 0.0 | 0.00 | 2.59 | 2.59 | 97 | 1006.7 |
| 20260906035153 | 22 | 41 | 0.0 | 0.0 | 0.00 | 2.59 | 2.59 | 97 | 1006.7 |
| 20260906034647 | 22 | 40 | 0.0 | 0.0 | 0.00 | 2.59 | 2.59 | 97 | 1006.7 |
| 20260906034142 | 22 | 40 | 0.0 | 0.0 | 0.00 | 2.59 | 2.59 | 97 | 1006.7 |
| 20260906033638 | 22 | 30 | 0.0 | 0.0 | 0.00 | 2.59 | 2.59 | 97 | 1006.6 |
| 20260906033138 | 22 | 30 | 0.0 | 0.0 | 0.00 | 2.59 | 2.59 | 97 | 1006.6 |
| 20260906032635 | 22 | 30 | 0.0 | 0.0 | 0.00 | 2.59 | 2.59 | 97 | 1006.9 |
| 20260906032134 | 22 | 42 | 0.0 | 1.6 | 0.00 | 2.59 | 2.59 | 97 | 1006.5 |
| 20260906031630 | 22 | 41 | 0.0 | 0.0 | 0.00 | 2.59 | 2.59 | 97 | 1006.5 |
| 20260906031125 | 22 | 41 | 0.0 | 0.0 | 0.00 | 2.59 | 2.59 | 97 | 1006.6 |
| 20260906030624 | 22 | 30 | 0.0 | 1.6 | 0.00 | 2.59 | 2.59 | 97 | 1006.7 |
| 20260906030120 | 22 | 36 | 0.0 | 0.0 | 0.00 | 2.59 | 2.59 | 97 | 1006.6 |
| 20260906025619 | 22 | 37 | 0.0 | 0.0 | 0.00 | 2.59 | 2.59 | 97 | 1006.8 |
| 20260906025118 | 22 | 13 | 3.2 | 3.2 | 0.00 | 2.59 | 2.59 | 97 | 1006.5 |
| 20260906024613 | 22 | 351 | 3.2 | 4.8 | 0.00 | 2.59 | 2.59 | 97 | 1006.7 |
| 20260906024107 | 22 | 48 | 1.6 | 3.2 | 0.00 | 2.59 | 2.59 | 97 | 1006.7 |
| 20260906023603 | 22 | 42 | 0.0 | 0.0 | 0.00 | 2.59 | 2.59 | 97 | 1006.4 |
| 20260906023057 | 22 | 42 | 0.0 | 0.0 | 0.00 | 2.59 | 2.59 | 96 | 1006.5 |
| 20260906022553 | 22 | 42 | 0.0 | 0.0 | 0.00 | 2.59 | 2.59 | 96 | 1006.6 |
| 20260906022048 | 22 | 42 | 0.0 | 0.0 | 0.00 | 2.59 | 2.59 | 96 | 1006.7 |
| 20260906021544 | 22 | 42 | 0.0 | 0.0 | 0.00 | 2.59 | 2.59 | 96 | 1006.3 |
| 20260906021042 | 22 | 42 | 0.0 | 0.0 | 0.00 | 2.59 | 2.59 | 96 | 1006.3 |
| 20260906020537 | 23 | 42 | 0.0 | 0.0 | 0.00 | 2.59 | 2.59 | 96 | 1006.3 |
| 20260906020036 | 22 | 40 | 0.0 | 0.0 | 0.00 | 2.59 | 2.59 | 96 | 1006.0 |
| 20260906015536 | 22 | 40 | 0.0 | 0.0 | 0.00 | 2.59 | 2.59 | 96 | 1006.1 |
| 20260906015036 | 22 | 40 | 0.0 | 0.0 | 0.00 | 2.59 | 2.59 | 96 | 1006.0 |
| 20260906014531 | 22 | 41 | 0.0 | 1.6 | 0.00 | 2.59 | 2.59 | 96 | 1006.1 |
| 20260906014026 | 22 | 39 | 0.0 | 0.0 | 0.00 | 2.59 | 2.59 | 96 | 1006.0 |
| 20260906013522 | 22 | 39 | 0.0 | 0.0 | 0.00 | 2.59 | 2.59 | 96 | 1005.9 |
| 20260906013017 | 22 | 39 | 0.0 | 0.0 | 0.00 | 2.59 | 2.59 | 96 | 1005.7 |
| 20260906012512 | 22 | 39 | 0.0 | 0.0 | 0.00 | 2.59 | 2.59 | 95 | 1005.7 |
| 20260906012012 | 22 | 39 | 0.0 | 0.0 | 0.00 | 2.59 | 2.59 | 95 | 1005.6 |
| 20260906011508 | 22 | 39 | 0.0 | 1.6 | 0.00 | 2.59 | 2.59 | 95 | 1005.8 |
| 20260906011002 | 22 | 39 | 0.0 | 0.0 | 0.00 | 2.59 | 2.59 | 95 | 1005.6 |
| 20260906010457 | 22 | 39 | 0.0 | 0.0 | 0.00 | 2.59 | 2.59 | 95 | 1005.4 |
| 20260906005954 | 22 | 39 | 0.0 | 0.0 | 0.00 | 2.59 | 2.59 | 95 | 1005.6 |
| 20260906005453 | 22 | 39 | 0.0 | 0.0 | 0.00 | 2.59 | 2.59 | 95 | 1005.4 |
| 20260906004951 | 22 | 39 | 0.0 | 0.0 | 0.00 | 2.59 | 2.59 | 95 | 1005.4 |
| 20260906004446 | 22 | 39 | 0.0 | 0.0 | 0.00 | 2.59 | 2.59 | 95 | 1005.4 |
| 20260906003941 | 22 | 39 | 0.0 | 0.0 | 0.00 | 2.59 | 2.59 | 95 | 1005.5 |
| 20260906003442 | 22 | 39 | 0.0 | 0.0 | 0.00 | 2.59 | 2.59 | 95 | 1005.6 |
| 20260906002937 | 22 | 39 | 0.0 | 0.0 | 0.00 | 2.59 | 2.59 | 94 | 1005.6 |
| 20260906002437 | 22 | 39 | 0.0 | 0.0 | 0.00 | 2.59 | 2.59 | 94 | 1005.5 |
| 20260906001932 | 21 | 39 | 0.0 | 0.0 | 0.00 | 2.59 | 2.59 | 94 | 1005.7 |
| 20260906001428 | 21 | 39 | 0.0 | 0.0 | 0.00 | 2.59 | 2.59 | 94 | 1005.8 |
| 20260906000923 | 21 | 39 | 0.0 | 0.0 | 0.00 | 2.59 | 2.59 | 94 | 1005.8 |
| 20260906000418 | 22 | 39 | 0.0 | 0.0 | 0.00 | 2.59 | 2.59 | 94 | 1005.8 |
| 20260905235913 | 22 | 39 | 0.0 | 0.0 | 0.00 | 2.59 | 2.59 | 94 | 1006.0 |
| 20260905235407 | 22 | 39 | 0.0 | 0.0 | 0.00 | 2.59 | 2.59 | 94 | 1006.0 |
| 20260905234902 | 22 | 39 | 0.0 | 1.6 | 0.00 | 2.59 | 2.59 | 94 | 1006.1 |
| 20260905234357 | 22 | 22 | 3.2 | 3.2 | 0.00 | 2.59 | 2.59 | 94 | 1005.9 |
| 20260905233852 | 22 | 33 | 0.0 | 0.0 | 0.00 | 2.59 | 2.59 | 93 | 1005.8 |
| 20260905233347 | 22 | 43 | 0.0 | 3.2 | 0.00 | 2.59 | 2.59 | 93 | 1005.6 |
| 20260905232846 | 22 | 48 | 1.6 | 1.6 | 0.00 | 2.59 | 2.59 | 93 | 1005.8 |
| 20260905232343 | 22 | 42 | 0.0 | 0.0 | 0.00 | 2.59 | 2.59 | 93 | 1005.5 |
| 20260905231838 | 22 | 41 | 0.0 | 1.6 | 0.00 | 2.59 | 2.59 | 93 | 1005.8 |
| 20260905231338 | 22 | 39 | 0.0 | 1.6 | 0.00 | 2.59 | 2.59 | 93 | 1005.7 |
| 20260905230836 | 22 | 5 | 3.2 | 4.8 | 0.00 | 2.59 | 2.59 | 92 | 1005.8 |
| 20260905230333 | 22 | 332 | 3.2 | 4.8 | 0.00 | 2.59 | 2.59 | 92 | 1005.5 |
| 20260905225832 | 22 | 331 | 4.8 | 4.8 | 0.00 | 2.59 | 2.59 | 93 | 1005.3 |